This demonstration page uses our WeatherBlox Daily Observations layout. Learn more.

Left ArrowRight Arrow

39.29038, -76.61219

Hourly Observations for December 28, 2020

Temp ( °F °C ) Dew Point ( °F °C ) Humidity (%) Winds ( mph kmh ) Pressure ( in mb ) Visibility ( mi km ) Precip ( " mm )
12:54 am 00:54 Mostly Cloudy 30 -1.1 24 -4.4 79 79 ESE 3 6 30.23 1024 10 16 0.00 0.00
1:54 am 01:54 Cloudy 29 -1.7 24 -4.4 82 82 Calm 30.22 1024 10 16 0.00 0.00
2:54 am 02:54 Cloudy 29 -1.7 25 -3.9 85 85 Calm 30.22 1023 10 16 0.00 0.00
3:54 am 03:54 Cloudy 37 2.8 29 -1.7 73 73 VRB 3 6 30.16 1022 10 16 0.00 0.00
4:54 am 04:54 Cloudy 37 2.8 28 -2.2 70 70 SSW 6 9 30.16 1021 10 16 0.00 0.00
5:54 am 05:54 Cloudy 38 3.3 27 -2.8 65 65 S 5 7 30.15 1021 10 16 0.00 0.00
6:54 am 06:54 Cloudy 37 2.8 27 -2.8 67 67 S 3 6 30.16 1021 10 16 0.00 0.00
7:54 am 07:54 Mostly Cloudy 38 3.3 26 -3.3 62 62 SSW 3 6 30.16 1021 10 16 0.00 0.00
8:54 am 08:54 Mostly Cloudy 40 4.4 26 -3.3 58 58 SSW 6 9 30.16 1021 10 16 0.00 0.00
9:54 am 09:54 Mostly Cloudy 44 6.7 26 -3.3 49 49 SW 10 17 30.16 1021 10 16 0.00 0.00
10:54 am 10:54 Mostly Cloudy 44 6.7 26 -3.3 49 49 SW 8 13 30.15 1021 10 16 0.00 0.00
11:54 am 11:54 Partly Cloudy 48 8.9 28 -2.2 46 46 WSW 9 15 30.12 1020 10 16 0.00 0.00
12:54 pm 12:54 Mostly Sunny 52 11.1 28 -2.2 40 40 SW 8 13 30.10 1019 10 16 0.00 0.00
1:54 pm 13:54 Mostly Sunny 55 12.8 30 -1.1 38 38 WSW 12 19 30.09 1019 10 16 0.00 0.00
2:54 pm 14:54 Partly Cloudy 56 13.3 30 -1.1 37 37 WSW 6 9 30.09 1019 10 16 0.00 0.00
3:54 pm 15:54 Mostly Sunny 55 12.8 31 -0.6 40 40 SW 3 6 30.10 1019 10 16 0.00 0.00
4:54 pm 16:54 Partly Cloudy 52 11.1 30 -1.1 43 43 SSW 6 9 30.11 1020 10 16 0.00 0.00
5:54 pm 17:54 Partly Cloudy 46 7.8 30 -1.1 54 54 Calm 30.13 1020 10 16 0.00 0.00
6:54 pm 18:54 Mostly Clear 45 7.2 30 -1.1 56 56 SW 3 6 30.14 1021 10 16 0.00 0.00
7:54 pm 19:54 Partly Cloudy 42 5.6 31 -0.6 65 65 W 5 7 30.16 1021 10 16 0.00 0.00
8:54 pm 20:54 Mostly Clear 40 4.4 30 -1.1 68 68 W 5 7 30.18 1022 10 16 0.00 0.00
9:54 pm 21:54 Mostly Clear 44 6.7 32 0 63 63 WNW 5 7 30.19 1023 10 16 0.00 0.00
10:54 pm 22:54 Mostly Clear 44 6.7 32 0 63 63 NW 5 7 30.22 1024 10 16 0.00 0.00
11:54 pm 23:54 Mostly Clear 42 5.6 29 -1.7 60 60 NW 7 11 30.23 1024 10 16 0.00 0.00

Powered by AerisWeather